Regional Weather Roundup
Issued by NWS Cleveland, OH

Home | Current Version | Previous Version | Graphics & Text | Print | Product List | Glossary On
Versions: 1 2 3 4 5 6 7 8 9 10 11 12 13 14 15 16 17 18 19 20 21 22 23 24 25 26 27 28 29 30 31 32 33 34 35 36 37 38 39 40 41 42 43 44 45 46 47 48 49 50
000
ASUS41 KCLE 232000
RWRCLE
OHIO REGIONAL WEATHER ROUNDUP
NATIONAL WEATHER SERVICE WILMINGTON, OH
400 PM EDT WED APR 23 2014

NOTE: "FAIR" INDICATES FEW OR NO CLOUDS BELOW 12,000 FEET WITH NO
SIGNIFICANT WEATHER AND/OR OBSTRUCTIONS TO VISIBILITY.

OHZ001>008-015>018-024>027-034-035-043-044-232100-
   NORTHWEST OHIO

CITY           SKY/WX    TMP DP  RH WIND       PRES   REMARKS
DEFIANCE       SUNNY     58  28  32 N12       30.09F
FINDLAY        SUNNY     56  31  38 N10       30.08S
TOLEDO EXPRESS SUNNY     57  28  33 N13       30.08S
TOLEDO METCALF SUNNY     54  31  41 CALM      30.10R
LIMA           SUNNY     55  31  39 NW10      30.08S
$$

OHZ009>014-019>023-028>033-038-089-232100-
   NORTHEAST OHIO

CITY           SKY/WX    TMP DP  RH WIND       PRES   REMARKS
CLE-HOPKINS    MOSUNNY   49  29  46 N12       30.11F
CLE-LAKEFRONT  SUNNY     45  34  65 W9        30.08S
CUY CO. ARPT   SUNNY     46  32  57 NW18G25   30.08S
LORAIN-ELYRIA  MOSUNNY   50  31  48 N5        30.10S
ASHTABULA      SUNNY     45  26  47 NW17G24   30.05R
AKRON-CANTON   PTSUNNY   46  30  52 NW12      30.05F
WOOSTER        NOT AVBL
MANSFIELD      MOSUNNY   49  33  54 NW10G21   30.08S
YOUNGSTOWN     PTSUNNY   46  29  51 NW15G23   30.03R
$$

OHZ042-051>053-060>062-070>072-077>081-232100-
  SOUTHWEST OHIO

CITY           SKY/WX    TMP DP  RH WIND       PRES   REMARKS
CINC-COVINGTON MOSUNNY   60  33  36 NW8       30.07F
CINC-LUNKEN    SUNNY     58  33  39 CALM      30.08S
HAMILTON       SUNNY     58  33  39 VRB5G17   30.08F
DAYTON         NOT AVBL
WRIGHT-PAT AFB NOT AVBL
DAYTON GENERAL SUNNY     56  33  42 NW7       30.06F
WILMINGTON     SUNNY     56  32  40 NW10      30.06F
$$

OHZ036-037-039>041-045>050-054>059-063>069-073>076-082>088-232100-
  CENTRAL AND SOUTHEAST OHIO

CITY           SKY/WX    TMP DP  RH WIND       PRES   REMARKS
COLUMBUS       MOSUNNY   57  32  38 N9G21     30.07S
OSU AIRPORT    MOSUNNY   54  33  45 N6        30.07S
BOLTON FIELD   SUNNY     54  36  50 NW12      30.07S
RICKENBACK AFB NOT AVBL
NEWARK         MOSUNNY   54  35  48 NW9       30.06S
MARION         MOSUNNY   52  32  46 NW13      30.09R
LANCASTER      SUNNY     57  33  40 N9        30.06S
ZANESVILLE     MOSUNNY   54  33  45 W8G16     30.05S
NEW PHILLY     CLOUDY    47  31  53 N10       30.07S
$$



USA.gov is the U.S. government's official web portal to all federal, state and local government web resources and services.